Regional Weather Roundup
Issued by NWS

Home | Current Version | Previous Version | Graphics & Text | Print | Product List | Glossary On
Versions: 1 2 3 4 5 6 7 8 9 10 11 12 13 14 15 16 17 18 19 20 21 22 23 24 25 26 27 28 29 30 31 32 33 34 35 36 37 38 39 40 41 42 43 44 45 46 47 48 49 50
000
ASUS43 KLMK 221710
RWRKY
KENTUCKY REGIONAL WEATHER ROUNDUP
NATIONAL WEATHER SERVICE LOUISVILLE KY
100 PM EDT FRI SEP 22 2017

NOTE "FAIR" INDICATES FEW OR NO CLOUDS BELOW 12,000 FEET
WITH NO SIGNIFICANT WEATHER AND/OR OBSTRUCTIONS TO VISIBILITY.

KYZ001>023-026-027-061>063-070>075-221800-
WESTERN AND SOUTH CENTRAL KENTUCKY

CITY           SKY/WX    TMP DP  RH WIND       PRES   REMARKS
PADUCAH        MOSUNNY   87  67  51 SE5       30.05F HX  90
HENDERSON      PTSUNNY   88  71  57 N7        30.08F HX  94
OWENSBORO      MOSUNNY   90  70  51 VRB6      30.08F HX  95
HOPKINSVILLE   SUNNY     87  67  50 E8        30.07F
BOWLING GREEN  SUNNY     86  68  54 E9        30.08F
GLASGOW        SUNNY     86  67  53 E7        30.09F
$$

KYZ024-025-028>034-038-045-046-053-221800-
NORTH CENTRAL KENTUCKY

CITY           SKY/WX    TMP DP  RH WIND       PRES   REMARKS
LOUISVILLE/SDF MOSUNNY   88  67  49 NE6       30.09F HX  91
LOUISVILLE/LOU SUNNY     88  70  55 NE6       30.09F HX  93
FORT KNOX      MOSUNNY   84  68  58 E9        30.08F
$$

KYZ035>037-039>044-047>052-055>060-089>105-221800-
NORTHEAST KENTUCKY

CITY           SKY/WX    TMP DP  RH WIND       PRES   REMARKS
LEXINGTON      MOSUNNY   85  67  54 NE3       30.12F
COVINGTON      MOSUNNY   87  69  54 VRB3      30.11F HX  91
FRANKFORT      SUNNY     86  65  49 CALM      30.10F
$$

KYZ054-064>069-076>088-106>120-221800-
SOUTHEAST KENTUCKY

CITY           SKY/WX    TMP DP  RH WIND       PRES   REMARKS
JACKSON        SUNNY     82  65  56 VRB5      30.14F
LONDON         SUNNY     83  65  54 E7        30.12F
SOMERSET       SUNNY     82  64  54 E6        30.11F
MIDDLESBORO    SUNNY     83  65  54 CALM      30.12F
MONTICELLO     SUNNY     83  69  62 VRB5G16   30.12F
$$





USA.gov is the U.S. government's official web portal to all federal, state and local government web resources and services.